Location: Katherine
(14.4670°S, 132.2670°E)
Time: 21:15:27
(UTC+09:30)

ISS - Visible Passes

Search period start: 23 February 2017 00:00
Search period end: 05 March 2017 00:00
Orbit: 399 x 408 km, 51.6° (Epoch: 23 February)

Date Brightness Start Highest point End Pass type
(mag) Time Alt. Az. Time Alt. Az. Time Alt. Az.
23 Feb -0.2 05:20:40 10° S 05:22:45 16° SE 05:24:48 10° E visible
23 Feb -0.7 20:12:48 10° WNW 20:15:23 22° SW 20:18:01 10° S visible
24 Feb -3.1 06:03:27 10° SW 06:06:39 50° NW 06:09:50 10° NNE visible
25 Feb -2.6 05:13:32 43° S 05:14:11 52° SE 05:17:24 10° NE visible
26 Feb -1.3 05:58:20 14° NW 05:58:20 14° NW 05:59:40 10° NNW visible
